Oxnard, CA

10:57 AM PDT on June 22, 2018 (GMT -0700)
Oxnard

Weather History for KOXR - June, 2018

Change the Weather History Date:

Wednesday, June 13, 2018

  Actual Average Record
Temperature  
Mean Temperature 62 °F -  
Max Temperature 70 °F 71 °F 81 °F (1972)
Min Temperature 55 °F 55 °F 46 °F (1952)
Degree Days  
Heating Degree Days 4    
Growing Degree Days 12 (Base 50)    
Moisture  
Dew Point 57 °F    
Average Humidity 90    
Maximum Humidity 100    
Minimum Humidity 68    
Precipitation  
Precipitation 0.00 in - - ()
Sea Level Pressure  
Sea Level Pressure 29.82 in    
Wind  
Wind Speed 3 mph (WSW)    
Max Wind Speed 12 mph    
Max Gust Speed 25 mph    
Visibility 6 miles    
Events      
Averages and records for this station are not official NWS values.
T = Trace of Precipitation, MM = Missing Value Source: NWS Daily Summary

Daily Weather History Graph

Daily Weather History Graph

Search for Another Location

Airport or City:

Astronomy

Jun. 13, 2018 Rise Set
Actual Time 5:44 AM PDT 8:09 PM PDT
Civil Twilight 5:15 AM PDT 8:38 PM PDT
Nautical Twilight 4:39 AM PDT 9:14 PM PDT
Astronomical Twilight 3:59 AM PDT 9:54 PM PDT
Moon 5:47 AM PDT (6/13) 8:13 PM PDT (6/13)
Length of Visible Light 15h 23m
Length of Day
14h 25m
Waning Crescent, 0% of the Moon is Illuminated
Jun 13
Waning Crescent
Jun 13
New
Jun 20
First Quarter
Jun 27
Full
Jul 6
Last Quarter

Hourly Weather History & Observations

Time (PDT) Temp. Dew Point Humidity Pressure Visibility Wind Dir Wind Speed Gust Speed Precip Events Conditions
12:20 AM 57.9 °F 57.0 °F 97% 29.83 in 1.2 mi WSW 3.5 mph - N/A   Overcast
12:44 AM 57.0 °F 57.0 °F 100% 29.83 in 0.8 mi Calm Calm - N/A   Mist
12:51 AM 57.0 °F 57.0 °F 100% 29.82 in 0.8 mi NW 3.5 mph - N/A   Mist
1:06 AM 57.0 °F 57.0 °F 100% 29.82 in 1.5 mi Calm Calm - N/A   Overcast
1:22 AM 57.0 °F 57.0 °F 100% 29.82 in 1.2 mi Calm Calm - N/A   Overcast
1:31 AM 57.0 °F 57.0 °F 100% 29.81 in 3.0 mi Calm Calm - N/A   Overcast
1:39 AM 57.0 °F 57.0 °F 100% 29.81 in 2.5 mi Calm Calm - N/A   Overcast
1:51 AM 57.0 °F 57.0 °F 100% 29.81 in 4.0 mi Calm Calm - N/A   Overcast
2:11 AM 57.0 °F 57.0 °F 100% 29.81 in 4.0 mi Calm Calm - N/A   Overcast
2:51 AM 57.9 °F 57.0 °F 97% 29.79 in 8.0 mi Calm Calm - N/A   Overcast
3:51 AM 57.9 °F 57.0 °F 97% 29.79 in 6.0 mi Calm Calm - N/A   Overcast
4:51 AM 57.0 °F 55.9 °F 96% 29.80 in 5.0 mi Calm Calm - N/A   Overcast
5:51 AM 57.0 °F 55.9 °F 96% 29.82 in 4.0 mi South 4.6 mph - N/A   Overcast
6:06 AM 55.9 °F 55.9 °F 100% 29.82 in 2.0 mi South 4.6 mph - N/A   Overcast
6:13 AM 57.0 °F 55.9 °F 96% 29.82 in 1.5 mi Calm Calm - N/A   Overcast
6:21 AM 57.0 °F 55.9 °F 96% 29.83 in 1.2 mi Calm Calm - N/A   Overcast
6:51 AM 57.9 °F 57.0 °F 97% 29.83 in 2.5 mi Calm Calm - N/A   Overcast
7:03 AM 57.9 °F 57.0 °F 97% 29.84 in 2.5 mi Variable 3.5 mph - N/A   Overcast
7:31 AM 60.1 °F 57.9 °F 93% 29.84 in 3.0 mi SE 8.1 mph - N/A   Overcast
7:51 AM 59.0 °F 57.9 °F 96% 29.84 in 3.0 mi South 3.5 mph - N/A   Overcast
8:51 AM 61.0 °F 59.0 °F 93% 29.85 in 7.0 mi South 4.6 mph - N/A   Overcast
9:18 AM 63.0 °F 59.0 °F 87% 29.85 in 8.0 mi Variable 3.5 mph - N/A   Scattered Clouds
9:51 AM 64.9 °F 57.9 °F 78% 29.84 in 10.0 mi SSW 8.1 mph - N/A   Clear
10:51 AM 64.9 °F 57.9 °F 78% 29.84 in 10.0 mi South 9.2 mph - N/A   Clear
11:51 AM 66.0 °F 57.9 °F 75% 29.86 in 10.0 mi South 8.1 mph - N/A   Clear
12:51 PM 66.0 °F 57.0 °F 73% 29.87 in 10.0 mi SSW 9.2 mph - N/A   Clear
1:51 PM 66.9 °F 57.0 °F 70% 29.86 in 10.0 mi WSW 10.4 mph - N/A   Clear
2:51 PM 68.0 °F 57.0 °F 68% 29.84 in 10.0 mi SW 6.9 mph - N/A   Clear
3:51 PM 66.9 °F 57.0 °F 70% 29.83 in 10.0 mi SW 8.1 mph - N/A   Clear
4:51 PM 66.9 °F 59.0 °F 76% 29.81 in 10.0 mi WSW 10.4 mph - N/A   Clear
5:51 PM 66.9 °F 59.0 °F 76% 29.80 in 10.0 mi West 10.4 mph 25.3 mph N/A   Partly Cloudy
6:30 PM 64.9 °F 59.0 °F 81% 29.79 in 10.0 mi West 11.5 mph - N/A   Mostly Cloudy
6:51 PM 63.0 °F 57.9 °F 84% 29.80 in 9.0 mi West 8.1 mph - N/A   Overcast
7:51 PM 62.1 °F 57.9 °F 86% 29.79 in 6.0 mi NW 8.1 mph - N/A   Overcast
8:51 PM 61.0 °F 57.9 °F 90% 29.80 in 6.0 mi West 5.8 mph - N/A   Overcast
8:58 PM 61.0 °F 57.9 °F 90% 29.80 in 6.0 mi West 9.2 mph - N/A   Overcast
9:45 PM 60.8 °F 57.2 °F 88% 29.82 in 1.8 mi WNW 4.6 mph - N/A   Overcast
9:51 PM 60.1 °F 57.0 °F 90% 29.82 in 2.5 mi WNW 8.1 mph - N/A   Overcast
9:58 PM 60.1 °F 57.0 °F 90% 29.82 in 9.0 mi NW 6.9 mph - N/A   Overcast
10:12 PM 60.1 °F 57.0 °F 90% 29.82 in 9.0 mi WNW 5.8 mph - N/A   Overcast
10:51 PM 60.1 °F 57.0 °F 90% 29.82 in 9.0 mi WNW 3.5 mph - N/A   Overcast
11:16 PM 60.1 °F 57.0 °F 90% 29.82 in 9.0 mi WNW 3.5 mph - N/A   Scattered Clouds
11:51 PM 60.1 °F 57.0 °F 90% 29.82 in 8.0 mi Calm Calm - N/A   Clear